Location: Bratsk-Energetik
(56.3300°N, 101.7600°E)
Time: 10:58:01
(UTC+08:00)

ISS - Visible Passes

Search period start: 24 March 2019 00:00
Search period end: 03 April 2019 00:00
Orbit: 408 x 411 km, 51.6° (Epoch: 24 March)

Date Brightness Start Highest point End Pass type
(mag) Time Alt. Az. Time Alt. Az. Time Alt. Az.
24 Mar -1.6 20:23:13 10° S 20:24:37 12° SE 20:26:00 10° ESE visible
24 Mar -1.8 21:57:33 10° SW 21:58:47 18° SSW 21:58:47 18° SSW visible
25 Mar -2.5 21:07:14 10° SW 21:09:58 24° SSE 21:10:31 23° SE visible
25 Mar -1.0 22:43:01 10° WSW 22:43:18 12° WSW 22:43:18 12° WSW visible
26 Mar -2.1 20:17:04 10° SSW 20:19:31 19° SSE 20:21:56 10° ESE visible
26 Mar -2.7 21:52:29 10° WSW 21:54:54 31° SSW 21:54:54 31° SSW visible
27 Mar -2.8 21:02:00 10° SW 21:04:59 31° SSE 21:06:24 22° ESE visible
27 Mar -1.5 22:38:07 10° WSW 22:39:10 18° WSW 22:39:10 18° WSW visible
28 Mar -3.0 21:47:30 10° WSW 21:50:35 36° S 21:50:35 36° S visible
29 Mar -3.0 20:56:56 10° WSW 21:00:00 36° S 21:01:56 18° ESE visible
29 Mar -1.7 22:33:16 10° WSW 22:34:42 20° WSW 22:34:42 20° WSW visible
30 Mar -2.8 21:42:34 10° WSW 21:45:34 32° SSW 21:46:01 30° S visible
31 Mar -2.8 20:51:54 10° WSW 20:54:58 35° S 20:57:18 15° SE visible
31 Mar -1.6 22:28:32 10° WSW 22:30:03 17° SW 22:30:03 17° SW visible
01 Apr -2.3 21:37:41 10° WSW 21:40:27 25° SSW 21:41:19 22° S visible
02 Apr -2.5 20:46:55 10° WSW 20:49:51 29° SSW 20:52:36 11° SE visible
02 Apr -1.3 22:24:13 10° WSW 22:25:21 12° SW 22:25:21 12° SW visible
